Hourly Data Report for January 12, 2018

All times are specified in Local Standard Time (LST). Add 1 hour to adjust for Daylight Saving Time where and when it is observed.

BARRIE-ORO
ONTARIO

44°29'00.000" N
79°33'00.000" W
289.00 m
6117700
71314
XBI

Download Data

Hourly Data (January 2018)
Hourly Data Report for January 12, 2018
Temp Definition
°C
Dew Point Temp Definition
°C
Rel Hum Definition
%
Wind Dir Definition
10's deg

Wind Spd Definition
km/h
Visibility Definition
km
Stn Press Definition
kPa
Hmdx Definition


Wind Chill Definition


Weather Definition


TIME
00:00 9.1 8.3 95 19 17   97.20     LegendNANA
01:00 9.1 8.4 96 19 13   97.12     LegendNANA
02:00 9.2 8.6 96 19 12   97.07     LegendNANA
03:00 9.1 8.5 96 19 13   97.05     LegendNANA
04:00 9.3 8.6 96 20 12   96.96     LegendNANA
05:00 8.9 8.3 96 19 7   96.91     LegendNANA
06:00 6.5 5.9 96 21 4   96.90     LegendNANA
07:00 3.9 3.3 96 29 23   96.98     LegendNANA
08:00 1.6 1.1 96 30 17   97.00     LegendNANA
09:00 0.7 0.2 97 30 24   97.02     LegendNANA
10:00 0.5 -0.1 96 30 25   97.19     LegendNANA
11:00 -0.7 -1.6 94 30 24   97.26   -7 LegendNANA
12:00 -2.5 -3.9 90 31 26   97.28   -9 LegendNANA
13:00 -5.4 -7.1 88 33 26   97.31   -13 LegendNANA
14:00 -7.9 -9.5 88 32 22   97.50   -16 LegendNANA
15:00 -10.1 -11.8 87 32 24   97.62   -19 LegendNANA
16:00 -11.2 -13.3 84 35 27   97.72   -21 LegendNANA
17:00 -11.8 -14.2 82 34 23   97.95   -21 LegendNANA
18:00 -12.1 -14.8 80 33 22   98.10   -21 LegendNANA
19:00 -12.5 -15.4 79 34 24   98.25   -22 LegendNANA
20:00 -12.7 -15.5 79 35 24   98.37   -22 LegendNANA
21:00 -13.2 -16.2 78 35 28   98.25   -23 LegendNANA
22:00 -13.8 -17.0 76 35 29   98.29   -24 LegendNANA
23:00 -14.1 -17.2 77 35 31   98.33   -25 LegendNANA

Notes on Data Quality.

Legend

  • E = Estimated
  • M = Missing
  • NA = Not Available
  • ‡ = Partner data that is not subject to review by the National Climate Archives
Date modified: